SCP
0 0 1 1 0 0 0 1 1 1 1 1 1 1 1 1 1 1 1 0 0 0 0 0 0 0 0 0 0 0 0 0 0 0 0 0 0 0 0 0 0 0 1
0 0 1 1 0 0 0 0 1 1 1 1 1 1 1 1 1 1 1 0 0 0 0 0 0 0 0 0 0 0 0 0 0 0 0 0 0 0 0 0 0 1 1
0 0 0 0 0 0 0 0 1 1 1 1 1 1 1 1 1 1 0 0 0 0 0 0 1 1 1 0 0 0 0 0 0 0 0 0 1 1 0 0 1 1 1
0 0 0 0 0 0 0 0 0 1 1 1 1 1 1 1 0 0 0 0 0 0 0 1 1 1 1 1 0 0 0 0 0 0 0 1 1 1 1 1 1 1 1
0 0 0 0 0 0 0 0 0 0 1 1 1 1 1 0 0 0 0 0 0 0 1 1 1 1 1 1 1 0 0 0 0 1 1 1 1 1 1 1 1 1 1
0 0 0 0 0 0 0 0 0 0 0 0 0 0 0 0 0 0 0 0 0 1 1 1 1 1 1 1 0 0 0 0 0 1 1 1 2 2 1 1 1 1 1
0 0 0 0 0 0 0 0 0 0 0 0 0 0 0 0 0 0 0 0 1 1 1 1 1 1 1 1 0 0 0 0 0 1 1 2 2 2 1 1 1 1 1
0 0 0 0 0 0 0 0 1 1 1 1 1 1 1 1 0 0 0 1 1 1 1 1 1 1 1 0 0 0 0 0 0 1 1 2 2 2 1 1 1 1 1
0 0 0 0 0 0 0 1 1 1 1 1 1 1 1 1 1 0 1 1 1 1 1 1 1 1 1 0 0 0 0 0 1 1 1 1 1 1 1 1 1 1 1
0 0 0 0 0 0 0 1 1 1 1 1 1 1 1 1 0 0 1 1 1 1 1 1 1 0 0 0 0 0 0 0 1 1 1 1 1 1 1 1 1 1 1
0 0 0 0 0 0 0 1 1 1 1 1 1 1 1 0 0 0 1 1 1 1 0 0 0 0 0 0 0 0 0 0 0 0 0 1 1 1 1 1 1 1 1
0 0 0 0 0 0 0 0 1 1 1 0 0 0 0 0 0 0 0 0 0 0 0 0 0 0 0 0 0 0 0 0 0 0 0 1 1 1 1 1 1 1 1
0 0 0 0 0 0 0 0 0 0 0 0 0 0 0 0 0 0 0 0 0 0 0 0 0 0 0 0 0 0 0 0 0 0 1 1 1 1 1 1 1 1 1
0 0 0 0 0 0 0 0 0 0 0 0 0 0 0 0 0 0 0 0 0 0 0 0 0 0 0 0 0 0 0 0 0 0 1 1 1 1 1 1 2 2 2
1 0 0 0 1 1 1 0 0 0 0 0 0 0 0 0 0 0 0 0 0 0 0 0 0 0 0 0 0 0 0 0 0 0 1 1 1 1 1 1 2 2 2
1 1 1 1 1 1 1 1 0 0 0 0 0 0 0 0 0 0 0 0 0 1 1 1 1 1 1 1 1 1 1 1 1 1 1 1 1 1 1 1 1 2 2
1 1 1 1 1 1 1 1 1 1 1 1 0 0 0 0 0 0 0 0 1 1 1 1 1 1 1 1 1 1 1 1 1 1 1 1 1 1 1 1 1 1 2
1 1 1 1 1 1 1 1 1 1 1 1 1 1 1 1 1 1 1 1 1 1 1 1 1 1 1 1 1 2 2 2 2 2 1 1 1 1 1 0 0 1 1
2 2 2 1 1 1 1 1 1 1 1 1 1 1 1 1 1 1 1 1 1 1 1 1 1 1 1 1 1 1 2 2 2 2 1 1 1 1 1 1 0 0 0
5 4 4 3 3 3 2 2 2 1 1 1 1 1 1 0 0 0 1 1 0 0 0 1 1 1 1 1 1 1 1 1 1 1 1 1 1 1 1 1 0 0 0
7 6 5 5 5 4 4 3 2 2 1 1 1 1 0 0 0 0 0 0 0 0 0 0 0 0 0 0 0 0 0 0 0 0 0 0 0 0 0 0 0 0 0
7 7 6 6 5 5 4 3 2 2 1 1 1 0 0 0 0 0 0 0 0 0 0 0 0 0 0 0 0 0 0 0 0 0 0 0 0 0 0 0 0 0 0
8 7 6 6 6 5 4 3 2 1 1 1 0 0 0 0 0 0 0 0 0 0 0 0 0 0 0 0 0 0 0 0 0 0 0 0 0 0 0 0 0 0 0
8 7 6 6 5 4 3 2 1 1 0 0 0 0 0 0 0 0 0 0 0 0 0 0 0 0 0 0 0 0 0 0 0 0 0 0 0 0 0 0 0 0 0
6 6 5 5 4 3 2 1 1 1 0 0 0 0 0 0 0 0 0 0 0 0 0 0 0 0 0 0 0 0 0 0 0 0 0 0 0 0 0 0 0 0 0
4 4 4 3 2 2 1 1 1 0 0 0 0 0 0 0 0 0 0 0 0 0 0 0 0 0 0 0 0 0 0 0 0 0 0 0 0 0 0 0 0 0 0
Wind_Speed
10 14 16 13 11 9 9 10 12 13 13 13 13 13 12 12 11 10 10 8 7 7 7 8 8 9 9 10 9 8 6 5 3 2 4 5 5 5 5 5 6 6 11
11 14 15 13 12 11 10 10 12 13 13 13 13 13 12 11 10 9 8 7 6 6 6 6 7 8 8 8 7 6 5 4 3 1 2 6 7 5 4 2 4 6 7
11 13 15 13 12 12 10 10 11 12 13 12 12 12 11 10 9 8 7 5 5 4 5 6 6 7 7 6 5 5 4 3 2 2 6 7 9 7 5 3 3 5 6
11 11 13 14 12 12 11 11 11 11 12 12 11 11 10 9 8 6 5 3 3 3 4 5 6 6 6 6 5 4 4 3 1 6 8 2 5 9 5 4 5 6 7
10 9 12 13 12 12 12 12 11 11 11 10 10 9 8 7 6 5 3 3 3 4 5 5 6 6 6 6 6 5 5 3 4 11 3 0 1 7 4 3 3 4 7
11 10 13 11 12 12 12 12 11 11 10 10 9 8 7 6 5 4 3 3 3 4 4 5 6 7 7 6 6 5 5 4 10 4 3 1 3 7 3 2 2 1 3
11 10 13 10 11 12 12 11 11 10 10 9 9 8 7 6 5 4 4 4 4 5 6 7 7 7 7 6 6 5 5 6 9 2 0 1 8 6 5 4 4 3 2
10 10 12 10 10 11 11 10 10 10 9 9 8 8 8 7 5 4 4 4 4 5 6 7 7 7 6 5 5 4 4 8 5 1 0 4 8 5 4 3 3 3 3
10 10 10 12 11 11 10 10 10 9 8 8 8 8 7 6 5 5 5 5 5 5 6 6 6 6 5 5 5 4 3 6 8 1 2 4 6 4 3 2 2 1 1
10 9 7 8 10 11 12 11 10 9 8 8 7 7 6 6 7 5 6 7 5 5 5 5 4 4 4 4 4 2 3 9 3 2 2 7 5 3 2 2 2 2 1
9 9 8 8 7 8 10 11 11 10 8 8 8 7 6 5 6 6 8 7 5 5 5 4 3 2 3 7 5 2 7 4 2 0 3 7 3 2 3 2 3 3 3
11 9 9 9 9 9 7 8 7 7 8 6 5 6 5 3 1 2 9 6 6 5 6 4 2 6 9 5 8 8 4 4 4 2 5 6 2 1 1 2 3 4 4
12 10 9 9 7 8 6 6 5 4 5 5 5 5 3 3 3 3 3 7 6 5 4 5 6 3 3 2 4 4 3 6 4 2 6 6 2 1 1 1 2 3 4
12 12 10 9 8 6 5 5 5 5 4 4 5 5 4 2 2 1 2 0 2 2 0 3 2 2 4 4 6 6 6 6 5 4 5 6 3 2 2 1 1 2 3
12 12 11 9 9 7 5 4 4 4 5 4 4 4 2 3 2 1 1 2 4 3 3 3 5 4 5 6 6 6 8 7 7 7 2 7 4 2 2 1 1 1 2
12 11 11 10 10 8 7 5 4 4 3 3 3 2 3 2 1 2 2 1 2 3 4 5 5 5 5 5 7 7 8 9 6 7 8 4 6 3 2 1 2 2 3
11 11 10 10 10 9 8 7 5 4 4 2 2 1 1 1 1 1 1 1 2 2 2 3 4 4 4 5 7 7 7 7 8 7 8 7 5 7 4 1 2 4 5
11 11 10 9 10 9 6 5 4 2 3 2 2 2 3 4 3 1 2 3 3 3 3 3 4 5 5 6 7 7 7 6 8 8 9 9 8 6 5 6 4 6 8
10 10 10 9 10 9 8 6 5 5 4 4 4 4 5 5 5 3 4 4 3 3 4 4 4 6 6 6 8 7 8 8 8 10 10 11 10 9 10 5 8 10 11
10 10 10 10 10 10 8 7 6 7 6 5 6 7 7 6 6 5 5 5 5 4 4 4 3 3 5 5 9 9 9 9 9 10 10 10 9 11 11 11 9 9 12
11 11 11 11 11 8 7 7 7 7 6 7 7 8 8 7 7 5 4 4 4 3 4 4 5 6 6 5 9 11 11 12 11 8 9 9 10 11 11 12 11 10 8
11 11 11 11 11 10 7 6 6 8 7 7 7 7 7 6 5 4 4 2 3 2 2 4 4 7 7 6 7 10 11 11 8 7 6 8 10 10 11 12 12 11 11
12 11 10 10 10 10 11 10 9 8 7 7 6 5 5 5 5 4 3 4 3 5 4 5 5 6 7 8 5 7 9 9 10 7 8 8 9 10 11 11 12 12 12
11 10 11 10 11 11 10 10 11 8 7 6 5 5 5 3 3 3 3 3 4 4 4 5 5 6 6 7 5 4 6 9 8 8 8 9 10 11 12 11 12 12 12
12 11 11 12 11 11 10 10 9 8 8 7 6 5 3 3 2 2 3 3 3 3 4 5 5 6 6 6 7 7 7 7 10 11 11 10 11 11 11 11 11 11 12
12 11 11 12 11 10 9 9 9 10 9 8 5 4 2 1 1 2 2 2 3 4 3 4 5 5 5 6 7 7 7 8 9 10 12 12 11 11 11 10 11 11 10
Wind_Direction
152 136 133 146 150 148 139 127 115 110 108 109 110 112 113 113 113 115 117 116 109 100 93 90 87 86 84 82 78 73 68 62 61 98 134 136 137 140 140 144 197 152 109
142 136 135 147 151 151 146 137 126 120 118 116 115 114 113 113 113 116 120 122 120 115 106 96 88 84 82 82 80 75 68 57 35 4 208 178 160 162 169 199 307 75 128
139 138 144 148 152 153 150 143 135 129 125 122 118 117 116 117 117 119 123 128 129 123 110 97 85 79 78 77 72 64 58 46 7 283 253 214 158 162 179 195 174 131 151
141 147 146 144 153 154 154 150 144 138 132 126 122 120 119 118 118 119 122 124 116 103 92 82 74 68 64 60 55 46 39 31 315 257 240 193 148 139 174 177 173 172 172
142 146 131 150 154 155 155 153 149 143 137 132 128 125 122 119 115 112 110 102 92 86 82 79 75 70 64 58 47 31 17 355 273 252 286 17 89 121 160 169 173 186 188
145 149 135 156 155 155 155 153 149 144 142 139 136 133 130 126 119 110 101 91 81 74 77 84 87 83 73 59 44 26 4 322 274 265 23 308 114 108 116 97 79 102 192
145 145 136 149 152 153 154 152 148 144 143 141 140 138 136 131 127 119 110 97 88 81 83 88 89 82 73 60 45 26 360 314 286 341 355 95 76 76 84 79 64 63 90
144 141 128 141 151 152 153 149 145 142 141 140 140 137 133 130 129 126 117 104 96 92 93 95 94 88 79 65 47 29 352 301 263 323 119 92 70 56 62 65 71 67 74
142 142 145 150 154 152 149 147 144 141 138 135 133 130 128 126 125 120 112 97 92 93 92 92 91 88 84 70 53 38 351 301 273 165 137 79 65 46 54 48 33 31 42
147 135 134 148 152 159 156 147 144 140 137 134 132 130 134 146 140 130 140 97 96 98 95 93 95 99 103 97 78 52 276 264 271 192 140 88 51 16 11 2 340 319 294
145 136 154 155 159 157 149 147 154 150 145 159 157 149 194 184 151 157 79 86 98 106 108 108 114 134 188 166 154 217 251 266 148 6 81 74 35 349 336 320 302 294 286
158 163 165 164 165 164 153 155 167 172 161 191 155 165 182 131 129 84 115 112 115 128 146 132 166 213 238 203 170 206 236 258 267 179 98 84 70 338 309 299 283 272 269
163 170 168 168 173 162 160 165 164 162 151 173 160 164 158 179 170 183 167 162 162 186 191 158 211 231 264 316 299 268 291 283 274 256 106 93 96 132 172 224 253 259 257
168 169 167 163 169 176 160 157 168 164 164 165 152 197 173 183 199 163 239 325 227 207 292 278 270 255 278 274 275 283 269 260 273 286 95 100 96 109 124 130 194 252 253
172 167 165 172 161 164 165 172 173 160 165 151 167 175 204 211 211 209 272 305 295 311 265 269 289 296 284 268 272 278 283 285 281 279 177 119 111 100 101 100 62 347 309
177 171 162 174 165 169 171 171 171 169 167 166 178 160 227 266 283 265 238 277 312 326 342 323 320 304 288 300 290 287 286 287 277 279 280 156 136 119 79 31 359 334 310
178 171 166 172 165 174 174 174 175 171 173 172 139 141 229 291 60 277 348 320 11 2 344 313 320 299 297 294 284 284 280 279 286 277 277 277 230 166 163 213 299 303 296
180 168 170 169 164 166 162 161 158 145 128 117 107 99 75 63 59 16 36 41 19 356 351 354 329 319 318 307 304 300 291 282 270 269 267 262 271 272 217 196 243 278 282
177 168 169 162 163 158 146 140 119 103 94 95 88 82 80 71 67 57 50 44 10 16 9 354 7 334 322 316 303 289 286 288 285 272 270 271 270 268 275 237 240 256 265
167 165 158 153 151 146 140 128 118 109 103 92 82 76 76 74 63 61 71 44 17 22 17 17 350 330 310 305 299 294 280 274 273 272 270 267 268 269 272 279 274 257 251
159 157 155 152 148 151 146 144 134 120 109 96 85 79 76 71 69 51 61 61 19 33 7 343 324 300 282 302 292 285 275 264 257 261 266 274 274 277 279 278 275 281 279
156 152 151 153 152 153 137 119 112 109 100 92 88 78 75 73 63 65 39 26 24 340 326 332 326 313 309 304 302 302 294 284 265 267 279 280 290 296 290 286 287 284 281
153 152 148 147 145 136 131 123 121 119 123 118 110 98 79 78 73 55 39 4 343 313 347 334 323 323 319 309 308 310 308 313 328 302 295 289 290 288 289 290 285 283 280
143 138 134 134 130 130 135 139 145 147 138 130 130 119 116 98 79 60 30 14 345 341 349 314 1 317 308 306 312 292 292 310 300 298 293 291 289 283 280 283 285 283 277
136 131 129 128 125 126 126 130 135 133 129 132 133 130 140 119 83 42 27 11 350 335 354 336 328 318 312 314 317 310 303 290 277 279 289 290 284 281 282 281 281 281 280
129 127 128 126 122 125 129 132 132 129 131 135 142 142 175 141 102 54 4 350 320 334 330 317 315 301 317 323 308 305 300 297 296 295 294 290 288 289 292 292 284 276 274